{"data":{"norad_id":40055,"epoch":"2026-09-20T02:57:46.524096Z","epoch_age_seconds":46970,"freshness":"FRESH","line1":"1 40055U 14034C   26263.12345514  .00000520  00000+0  73746-4 0  9997","line2":"2 40055  98.2954 141.8528 0014009  67.7816 292.4880 14.81400152658582","mean_motion":14.81400152,"eccentricity":0.0014009,"inclination_deg":98.2954,"raan_deg":141.8528,"arg_perigee_deg":67.7816,"mean_anomaly_deg":292.488,"bstar":7.3746e-5,"rev_number":65858,"period_min":97.20533632023,"perigee_km":615.09745093729,"apogee_km":634.71858246508,"semimajor_km":7003.0450167012,"source":"CELESTRAK","updated_at":"2026-09-20T09:00:48.027128Z"}}